Location: Andrest
(43.3200°N, 0.0641°E)
Time: 12:45:28
(UTC+00:00)

USA 81 - Pass Details

Date: 01 December 2020
Orbit: 783 x 791 km, 85.0° (Epoch: 30 November)

Event Time Altitude Azimuth Distance (km) Brightness Sun altitude
Rises 17:24:48 0° 356° (N) 3,289 7.1 -10.7°
Reaches altitude 10° 17:27:11 10° 357° (N) 2,357 6.4 -11.1°
Maximum altitude 17:32:29 79° 84° (E) 807 4.0 -12.0°
Drops below altitude 10° 17:37:45 10° 172° (S) 2,345 6.6 -12.9°
Sets 17:40:06 0° 174° (S) 3,270 7.4 -13.3°
